File downld08.txt from Lexington
Temp Hi Low Out Dew Wind Wind Wind Hi Hi Wind Heat THW Rain Heat Cool In In In In In In Air Wind Wind ISS Arc.
Date Time Out Temp Temp Hum Pt. Speed Dir Run Speed Dir Chill Index Index Bar Rain Rate D-D D-D Temp Hum Dew Heat EMC Density Samp Tx Recept Int.
---------------------------------------------------------------------------------------------------------------------------------------------------------------------------------------------------------------
4/29/26 12:30a 73.1 73.8 73.1 74 64.3 3.0 SE 1.50 8.0 SE 73.1 74.3 74.3 30.076 0.00 0.00 0.000 0.169 78.9 47 57.0 78.5 8.67 .0729 651 4 100.0 30
4/29/26 1:00a 72.9 73.1 72.9 77 65.3 5.0 SE 2.50 14.0 SE 72.9 74.3 74.3 30.068 0.00 0.00 0.000 0.165 78.6 47 56.7 78.2 8.68 .0729 648 4 100.0 30
4/29/26 1:30a 72.1 72.9 72.1 78 64.9 3.0 SSE 1.50 11.0 SSE 72.1 73.5 73.5 30.069 0.00 0.00 0.000 0.148 78.7 45 55.6 78.1 8.38 .0730 648 4 100.0 30
4/29/26 2:00a 71.4 72.1 71.4 79 64.5 2.0 SSE 1.00 8.0 SE 71.4 72.8 72.8 30.055 0.00 0.00 0.000 0.133 78.9 47 57.0 78.5 8.67 .0729 647 4 100.0 30
4/29/26 2:30a 70.2 71.4 70.2 81 64.1 1.0 SSE 0.50 5.0 SSE 70.2 71.6 71.6 30.045 0.00 0.00 0.000 0.108 79.1 45 55.9 78.5 8.37 .0729 647 4 100.0 30
4/29/26 3:00a 69.1 70.2 69.1 84 64.1 1.0 SE 0.50 4.0 SE 69.1 70.8 70.8 30.037 0.00 0.00 0.000 0.085 78.8 47 56.9 78.4 8.67 .0728 651 4 100.0 30
4/29/26 3:30a 68.8 69.1 68.5 85 64.1 1.0 ESE 0.50 4.0 SE 68.8 70.5 70.5 30.027 0.00 0.00 0.000 0.079 79.0 47 57.0 78.6 8.67 .0728 647 4 100.0 30
4/29/26 4:00a 68.0 68.9 68.0 86 63.7 0.0 E 0.00 2.0 SE 68.0 69.5 69.5 30.034 0.00 0.00 0.000 0.063 79.1 47 57.1 78.7 8.67 .0728 646 4 100.0 30
4/29/26 4:30a 66.9 68.0 66.8 87 62.9 0.0 E 0.00 3.0 E 66.9 68.2 68.2 30.027 0.00 0.00 0.000 0.040 79.1 47 57.1 78.7 8.67 .0728 649 4 100.0 30
4/29/26 5:00a 65.7 66.9 65.7 89 62.4 0.0 ENE 0.00 2.0 ENE 65.7 66.9 66.9 30.044 0.00 0.00 0.000 0.015 79.0 47 57.0 78.6 8.67 .0728 650 4 100.0 30
4/29/26 5:30a 64.8 65.7 64.8 90 61.8 0.0 ENE 0.00 1.0 ENE 64.8 65.9 65.9 30.041 0.00 0.00 0.004 0.000 78.9 47 57.0 78.5 8.67 .0728 650 4 100.0 30
4/29/26 6:00a 64.5 64.8 64.5 92 62.1 0.0 ENE 0.00 2.0 ENE 64.5 65.6 65.6 30.038 0.00 0.00 0.010 0.000 78.8 47 56.9 78.4 8.67 .0728 647 4 100.0 30
4/29/26 6:30a 65.5 65.6 64.4 92 63.1 1.0 E 0.50 3.0 E 65.5 66.8 66.8 30.043 0.00 0.00 0.000 0.010 78.7 47 56.8 78.3 8.68 .0729 649 4 100.0 30
4/29/26 7:00a 65.7 65.7 65.5 92 63.3 1.0 E 0.50 3.0 ENE 65.7 67.1 67.1 30.048 0.00 0.00 0.000 0.015 78.5 47 56.6 78.1 8.68 .0729 650 4 100.0 30
4/29/26 7:30a 66.0 66.0 65.7 92 63.6 1.0 E 0.50 3.0 E 66.0 67.4 67.4 30.061 0.00 0.00 0.000 0.021 78.4 47 56.5 78.0 8.68 .0730 651 4 100.0 30
4/29/26 8:00a 66.8 66.8 66.0 91 64.1 1.0 E 0.50 3.0 ENE 66.8 68.4 68.4 30.071 0.00 0.00 0.000 0.038 78.2 47 56.3 77.8 8.69 .0730 648 4 100.0 30
4/29/26 8:30a 68.0 68.0 66.8 90 65.0 1.0 ENE 0.50 3.0 NE 68.0 69.8 69.8 30.086 0.00 0.00 0.000 0.063 78.2 47 56.3 77.8 8.69 .0731 648 4 100.0 30
4/29/26 9:00a 70.5 70.5 68.1 87 66.4 1.0 E 0.50 4.0 E 70.5 72.4 72.4 30.088 0.00 0.00 0.000 0.115 78.2 47 56.3 77.8 8.69 .0731 644 4 100.0 30
4/29/26 9:30a 74.6 74.6 70.5 80 68.0 2.0 E 1.00 6.0 E 74.6 76.6 76.6 30.091 0.00 0.00 0.000 0.200 78.3 47 56.4 77.9 8.68 .0731 653 4 100.0 30
4/29/26 10:00a 77.6 77.6 74.6 75 69.0 1.0 SSE 0.50 6.0 SSE 77.6 80.1 80.1 30.104 0.00 0.00 0.000 0.262 78.5 47 56.6 78.1 8.68 .0731 650 4 100.0 30
4/29/26 10:30a 80.7 80.7 77.5 67 68.7 2.0 E 1.00 8.0 SE 80.7 83.7 83.7 30.095 0.00 0.00 0.000 0.327 78.8 47 56.9 78.4 8.67 .0730 647 4 100.0 30
4/29/26 11:00a 82.1 82.1 80.6 60 66.8 2.0 S 1.00 9.0 S 82.1 84.4 84.4 30.099 0.00 0.00 0.000 0.356 78.6 47 56.7 78.2 8.68 .0730 649 4 100.0 30
4/29/26 11:30a 83.6 83.6 82.1 54 65.2 3.0 S 1.50 8.0 SSW 83.6 85.5 85.5 30.090 0.00 0.00 0.000 0.387 78.5 47 56.6 78.1 8.68 .0730 647 4 100.0 30
4/29/26 12:00p 85.8 85.8 83.6 51 65.6 1.0 SW 0.50 7.0 SW 85.8 88.0 88.0 30.089 0.00 0.00 0.000 0.433 78.5 47 56.6 78.1 8.68 .0730 649 4 100.0 30
4/29/26 12:30p 86.1 86.1 85.7 48 64.1 2.0 S 1.00 7.0 SW 86.1 87.6 87.6 30.077 0.00 0.00 0.000 0.440 78.5 47 56.6 78.1 8.68 .0730 651 4 100.0 30
4/29/26 1:00p 87.2 87.2 86.0 52 67.4 3.0 S 1.50 10.0 SSW 87.2 90.6 90.6 30.055 0.00 0.00 0.000 0.462 78.8 47 56.9 78.4 8.67 .0729 649 4 100.0 30
4/29/26 1:30p 89.3 89.3 87.3 48 67.0 2.0 NW 1.00 9.0 NW 89.3 92.8 92.8 30.040 0.00 0.00 0.000 0.506 79.1 46 56.5 78.6 8.47 .0728 649 4 100.0 30
4/29/26 2:00p 88.9 89.9 88.4 49 67.3 4.0 SSW 2.00 11.0 S 88.9 92.4 92.4 30.027 0.00 0.00 0.000 0.498 78.8 46 56.3 78.3 8.47 .0728 648 4 100.0 30
4/29/26 2:30p 89.7 89.7 88.9 49 68.0 4.0 SW 2.00 14.0 SW 89.7 93.9 93.9 30.019 0.00 0.00 0.000 0.515 79.1 47 57.1 78.7 8.67 .0727 649 4 100.0 30
4/29/26 3:00p 88.9 89.7 88.9 49 67.3 6.0 SW 3.00 15.0 SW 88.9 92.4 92.4 30.010 0.00 0.00 0.000 0.498 79.4 45 56.2 78.8 8.36 .0727 654 4 100.0 30
4/29/26 3:30p 87.8 88.9 87.6 55 69.6 7.0 SW 3.50 15.0 WSW 87.8 92.8 92.8 30.000 0.00 0.00 0.000 0.475 78.9 44 55.1 78.2 8.17 .0728 650 4 100.0 30
4/29/26 4:00p 87.4 87.8 87.3 59 71.3 5.0 W 2.50 13.0 WSW 87.4 93.6 93.6 29.982 0.00 0.00 0.000 0.467 79.2 45 56.0 78.6 8.37 .0727 648 4 100.0 30
4/29/26 4:30p 87.5 87.8 87.3 56 69.9 6.0 NW 3.00 15.0 NNW 87.5 92.6 92.6 29.970 0.00 0.00 0.000 0.469 79.6 44 55.8 78.9 8.16 .0726 648 4 100.0 30
4/29/26 5:00p 86.0 87.5 85.9 59 70.0 6.0 NW 3.00 15.0 WNW 86.0 90.9 90.9 29.965 0.00 0.00 0.000 0.438 79.3 43 54.9 78.4 8.05 .0727 646 4 100.0 30
4/29/26 5:30p 84.8 86.0 84.8 63 70.8 5.0 WSW 2.50 13.0 SW 84.8 90.0 90.0 29.954 0.00 0.00 0.000 0.413 79.1 44 55.3 78.4 8.17 .0727 651 4 100.0 30
4/29/26 6:00p 84.1 84.8 84.0 66 71.5 4.0 W 2.00 13.0 NW 84.1 89.6 89.6 29.951 0.00 0.00 0.000 0.398 79.6 43 55.1 78.7 8.05 .0726 647 4 100.0 30
4/29/26 6:30p 83.4 84.1 83.4 66 70.8 4.0 NW 2.00 13.0 NNW 83.4 88.3 88.3 29.940 0.00 0.00 0.000 0.383 79.3 41 53.6 78.2 7.75 .0727 646 4 100.0 30
4/29/26 7:00p 81.7 83.4 81.7 69 70.5 4.0 WSW 2.00 11.0 W 81.7 85.9 85.9 29.945 0.00 0.00 0.000 0.348 79.2 43 54.8 78.4 8.05 .0726 645 4 100.0 30
4/29/26 7:30p 78.9 81.7 78.9 75 70.3 5.0 W 2.50 11.0 WSW 78.9 82.1 82.1 29.949 0.00 0.00 0.000 0.290 79.5 44 55.7 78.8 8.16 .0726 650 4 100.0 30
4/29/26 8:00p 77.1 78.8 77.1 80 70.5 3.0 WSW 1.50 10.0 W 77.1 79.9 79.9 29.951 0.00 0.00 0.000 0.252 79.3 42 54.2 78.3 7.86 .0727 652 4 100.0 30
4/29/26 8:30p 75.7 77.1 75.7 82 69.8 2.0 W 1.00 8.0 W 75.7 78.1 78.1 29.959 0.00 0.00 0.000 0.223 78.6 43 54.2 77.7 8.05 .0728 647 4 100.0 30
4/29/26 9:00p 74.8 75.7 74.8 85 70.0 2.0 WSW 1.00 8.0 W 74.8 77.2 77.2 29.971 0.00 0.00 0.000 0.204 78.7 44 55.0 78.0 8.18 .0728 646 4 100.0 30
4/29/26 9:30p 74.2 74.9 74.2 87 70.1 1.0 W 0.50 4.0 WSW 74.2 76.4 76.4 29.979 0.00 0.00 0.000 0.192 78.9 45 55.8 78.3 8.37 .0727 647 4 100.0 30
4/29/26 10:00p 73.5 74.2 73.5 88 69.7 0.0 WNW 0.00 4.0 W 73.5 75.6 75.6 29.985 0.00 0.00 0.000 0.177 78.8 44 55.0 78.1 8.17 .0728 649 4 100.0 30
4/29/26 10:30p 72.7 73.5 72.7 89 69.3 0.0 WNW 0.00 2.0 NW 72.7 74.8 74.8 29.984 0.00 0.00 0.000 0.160 78.4 46 55.9 77.9 8.48 .0728 652 4 100.0 30
4/29/26 11:00p 72.0 72.7 71.9 91 69.2 0.0 WNW 0.00 2.0 WNW 72.0 74.2 74.2 29.990 0.00 0.00 0.000 0.146 78.8 45 55.7 78.2 8.37 .0728 648 4 100.0 30
4/29/26 11:30p 72.2 72.2 71.9 92 69.7 1.0 WNW 0.50 6.0 W 72.2 74.5 74.5 29.993 0.00 0.00 0.000 0.150 79.0 47 57.0 78.6 8.67 .0727 650 4 100.0 30
4/30/26 12:00a 72.1 72.2 72.1 91 69.3 1.0 NW 0.50 4.0 NW 72.1 74.3 74.3 29.991 0.00 0.00 0.000 0.148 78.8 48 57.4 78.6 8.87 .0727 648 4 100.0 30
4/30/26 12:30a 71.8 72.1 71.8 92 69.3 1.0 WNW 0.50 3.0 W 71.8 74.1 74.1 29.987 0.00 0.00 0.000 0.142 78.5 47 56.6 78.1 8.68 .0728 652 4 100.0 30
4/30/26 1:00a 71.3 71.8 71.3 91 68.5 1.0 NW 0.50 5.0 NW 71.3 73.5 73.5 29.984 0.00 0.00 0.000 0.131 79.1 48 57.7 78.9 8.87 .0726 649 4 100.0 30
4/30/26 1:30a 71.0 71.3 71.0 91 68.2 0.0 WNW 0.00 3.0 NNW 71.0 73.2 73.2 29.978 0.00 0.00 0.000 0.125 78.8 48 57.4 78.6 8.87 .0727 646 4 100.0 30
4/30/26 2:00a 70.6 71.0 70.5 92 68.2 0.0 WNW 0.00 1.0 WNW 70.6 72.9 72.9 29.966 0.00 0.00 0.000 0.117 79.2 47 57.2 78.9 8.67 .0726 647 4 100.0 30
4/30/26 2:30a 70.3 70.6 70.3 93 68.2 0.0 --- 0.00 0.0 --- 70.3 72.7 72.7 29.949 0.00 0.00 0.000 0.110 78.8 48 57.4 78.6 8.87 .0726 646 4 100.0 30
4/30/26 3:00a 69.8 70.3 69.8 93 67.7 0.0 WNW 0.00 1.0 WNW 69.8 72.2 72.2 29.938 0.00 0.00 0.000 0.100 79.0 47 57.0 78.6 8.67 .0726 653 4 100.0 30
4/30/26 3:30a 70.5 70.5 69.8 94 68.7 2.0 NW 1.00 5.0 NW 70.5 73.0 73.0 29.941 0.00 0.00 0.000 0.115 79.2 47 57.2 78.9 8.67 .0725 647 4 100.0 30
4/30/26 4:00a 71.6 71.6 70.6 95 70.1 1.0 NW 0.50 5.0 NW 71.6 74.1 74.1 29.932 0.00 0.00 0.000 0.137 79.3 47 57.3 79.0 8.66 .0725 649 4 100.0 30
4/30/26 4:30a 70.9 71.8 70.9 95 69.4 1.0 SSE 0.50 3.0 SSE 70.9 73.5 73.5 29.933 0.00 0.00 0.000 0.123 79.3 47 57.3 79.0 8.66 .0725 648 4 100.0 30
4/30/26 5:00a 70.7 70.9 70.7 95 69.2 0.0 SE 0.00 2.0 SE 70.7 73.3 73.3 29.931 0.00 0.00 0.000 0.119 79.4 47 57.4 79.1 8.66 .0725 645 4 100.0 30
4/30/26 5:30a 70.3 70.7 70.3 95 68.8 0.0 SE 0.00 2.0 S 70.3 72.9 72.9 29.932 0.00 0.00 0.000 0.110 79.3 47 57.3 79.0 8.66 .0725 652 4 100.0 30
4/30/26 6:00a 70.1 70.3 70.0 95 68.6 0.0 S 0.00 2.0 S 70.1 72.7 72.7 29.936 0.00 0.00 0.000 0.106 79.3 47 57.3 79.0 8.66 .0725 646 4 100.0 30
4/30/26 6:30a 70.1 70.2 70.0 95 68.6 0.0 SSW 0.00 3.0 SSW 70.1 72.7 72.7 29.939 0.00 0.00 0.000 0.106 79.3 47 57.3 79.0 8.66 .0725 649 4 100.0 30
4/30/26 7:00a 70.5 70.5 70.1 95 69.0 1.0 S 0.50 5.0 SSE 70.5 73.1 73.1 29.924 0.00 0.00 0.000 0.115 79.3 47 57.3 79.0 8.66 .0725 648 4 100.0 30
4/30/26 7:30a 71.2 71.2 70.4 96 70.0 1.0 S 0.50 5.0 S 71.2 73.8 73.8 29.947 0.00 0.00 0.000 0.129 79.2 47 57.2 78.9 8.67 .0725 651 4 100.0 30
4/30/26 8:00a 71.8 71.8 71.1 96 70.6 0.0 S 0.00 2.0 S 71.8 74.4 74.4 29.949 0.00 0.00 0.000 0.142 79.3 48 57.9 79.1 8.86 .0725 647 4 100.0 30
4/30/26 8:30a 72.5 72.6 71.8 96 71.3 0.0 S 0.00 2.0 S 72.5 75.1 75.1 29.963 0.00 0.00 0.000 0.156 79.3 48 57.9 79.1 8.86 .0725 648 4 100.0 30
4/30/26 9:00a 73.8 73.9 72.5 94 72.0 1.0 W 0.50 6.0 W 73.8 76.4 76.4 29.975 0.00 0.00 0.000 0.183 79.4 46 56.8 78.9 8.46 .0726 649 4 100.0 30
4/30/26 9:30a 74.3 74.3 73.8 92 71.8 2.0 WSW 1.00 6.0 W 74.3 76.8 76.8 29.970 0.00 0.00 0.000 0.194 79.0 47 57.0 78.6 8.67 .0726 649 4 100.0 30
4/30/26 10:00a 74.8 74.8 74.2 87 70.7 1.0 SW 0.50 6.0 SSW 74.8 77.3 77.3 29.955 0.00 0.00 0.000 0.204 79.3 48 57.9 79.1 8.86 .0725 653 4 100.0 30
4/30/26 10:30a 77.1 77.1 74.8 85 72.2 3.0 SW 1.50 7.0 SSW 77.1 80.4 80.4 29.953 0.00 0.00 0.000 0.252 78.9 47 57.0 78.5 8.67 .0726 649 4 100.0 30
4/30/26 11:00a 79.3 79.4 77.2 73 69.9 4.0 SSW 2.00 10.0 W 79.3 82.5 82.5 29.950 0.00 0.00 0.000 0.298 78.7 47 56.8 78.3 8.68 .0726 648 4 100.0 30
4/30/26 11:30a 81.0 81.0 79.4 68 69.4 4.0 SW 2.00 11.0 SSW 81.0 84.4 84.4 29.964 0.00 0.00 0.000 0.333 78.8 46 56.3 78.3 8.47 .0727 648 4 100.0 30
4/30/26 12:00p 81.6 81.7 81.1 63 67.8 6.0 SSW 3.00 14.0 S 81.6 84.3 84.3 29.956 0.00 0.00 0.000 0.346 78.6 47 56.7 78.2 8.68 .0727 651 4 100.0 30
4/30/26 12:30p 82.6 82.6 81.6 63 68.7 6.0 SSW 3.00 14.0 WSW 82.6 86.0 86.0 29.959 0.00 0.00 0.000 0.367 78.6 47 56.7 78.2 8.68 .0727 654 4 100.0 30
4/30/26 1:00p 84.2 84.2 82.6 63 70.2 5.0 SW 2.50 14.0 S 84.2 88.8 88.8 29.952 0.00 0.00 0.000 0.400 78.8 48 57.4 78.6 8.87 .0726 646 4 100.0 30
4/30/26 1:30p 85.7 85.8 84.2 59 69.7 7.0 SSW 3.50 15.0 SW 85.7 90.3 90.3 29.946 0.00 0.00 0.000 0.431 79.1 47 57.1 78.7 8.67 .0726 648 4 100.0 30
4/30/26 2:00p 84.1 85.7 83.9 62 69.7 7.0 SW 3.50 15.0 SSW 84.1 88.3 88.3 29.933 0.00 0.00 0.000 0.398 78.8 46 56.3 78.3 8.47 .0726 648 4 100.0 30
4/30/26 2:30p 85.4 85.4 84.2 61 70.4 6.0 SW 3.00 16.0 W 85.4 90.4 90.4 29.936 0.00 0.00 0.000 0.425 78.7 47 56.8 78.3 8.68 .0726 651 4 100.0 30
4/30/26 3:00p 86.6 86.6 85.4 57 69.6 6.0 WSW 3.00 20.0 SSW 86.6 91.3 91.3 29.930 0.00 0.00 0.000 0.450 79.2 47 57.2 78.9 8.67 .0725 651 4 100.0 30
4/30/26 3:30p 86.6 86.6 85.2 58 70.1 7.0 W 3.50 17.0 NW 86.6 91.7 91.7 29.923 0.00 0.00 0.000 0.450 79.1 45 55.9 78.5 8.37 .0726 648 4 100.0 30
4/30/26 4:00p 85.8 87.2 85.6 59 69.8 7.0 NW 3.50 16.0 NNW 85.8 90.5 90.5 29.921 0.00 0.00 0.000 0.433 78.8 46 56.3 78.3 8.47 .0726 646 4 100.0 30
4/30/26 4:30p 84.8 85.8 84.8 61 69.9 6.0 W 3.00 14.0 WSW 84.8 89.3 89.3 29.917 0.00 0.00 0.000 0.413 79.4 46 56.8 78.9 8.46 .0725 647 4 100.0 30
4/30/26 5:00p 84.3 84.9 84.3 63 70.3 6.0 W 3.00 14.0 WSW 84.3 89.0 89.0 29.917 0.00 0.00 0.000 0.402 79.2 43 54.8 78.4 8.05 .0726 647 4 100.0 30
4/30/26 5:30p 84.2 84.4 83.9 63 70.2 6.0 NW 3.00 15.0 NW 84.2 88.8 88.8 29.908 0.00 0.00 0.000 0.400 79.1 45 55.9 78.5 8.37 .0725 652 4 100.0 30
4/30/26 6:00p 83.3 84.2 83.3 64 69.8 5.0 W 2.50 13.0 NW 83.3 87.5 87.5 29.906 0.00 0.00 0.000 0.381 79.6 44 55.8 78.9 8.16 .0725 648 4 100.0 30
4/30/26 6:30p 81.6 83.3 81.5 68 70.0 4.0 W 2.00 10.0 WSW 81.6 85.5 85.5 29.900 0.00 0.00 0.000 0.346 79.3 42 54.2 78.3 7.86 .0725 648 4 100.0 30
4/30/26 7:00p 80.0 81.6 80.0 70 69.3 4.0 WSW 2.00 10.0 WSW 80.0 83.1 83.1 29.908 0.00 0.00 0.000 0.313 78.9 44 55.1 78.2 8.17 .0726 650 4 100.0 30
4/30/26 7:30p 78.4 80.0 78.4 75 69.8 4.0 WSW 2.00 10.0 W 78.4 81.3 81.3 29.913 0.00 0.00 0.000 0.279 79.2 44 55.4 78.5 8.17 .0725 646 4 100.0 30
4/30/26 8:00p 77.3 78.4 77.3 77 69.5 3.0 WSW 1.50 10.0 WSW 77.3 79.9 79.9 29.916 0.00 0.00 0.000 0.256 79.2 43 54.8 78.4 8.05 .0726 652 4 100.0 30
4/30/26 8:30p 76.3 77.3 76.3 79 69.3 3.0 WSW 1.50 9.0 SSW 76.3 78.6 78.6 29.923 0.00 0.00 0.000 0.235 78.6 45 55.5 78.0 8.38 .0726 648 4 100.0 30
4/30/26 9:00p 75.7 76.4 75.6 81 69.5 1.0 W 0.50 7.0 WSW 75.7 78.0 78.0 29.935 0.00 0.00 0.000 0.223 78.6 45 55.5 78.0 8.38 .0727 644 4 100.0 30
4/30/26 9:30p 75.0 75.7 75.0 83 69.5 1.0 WSW 0.50 5.0 WSW 75.0 77.3 77.3 29.943 0.00 0.00 0.000 0.208 78.7 47 56.8 78.3 8.68 .0726 650 4 100.0 30
4/30/26 10:00p 74.6 75.1 74.6 85 69.8 1.0 WSW 0.50 4.0 WSW 74.6 76.9 76.9 29.946 0.00 0.00 0.000 0.200 78.8 47 56.9 78.4 8.67 .0726 649 4 100.0 30
4/30/26 10:30p 74.5 74.6 74.5 85 69.7 1.0 SW 0.50 4.0 WSW 74.5 76.8 76.8 29.941 0.00 0.00 0.000 0.198 78.9 48 57.5 78.7 8.87 .0726 653 4 100.0 30
4/30/26 11:00p 74.4 74.5 74.4 85 69.6 1.0 SW 0.50 4.0 SSW 74.4 76.7 76.7 29.944 0.00 0.00 0.000 0.196 78.9 48 57.5 78.7 8.87 .0726 648 4 100.0 30
4/30/26 11:30p 74.0 74.4 73.9 86 69.5 1.0 WSW 0.50 4.0 WSW 74.0 76.1 76.1 29.957 0.00 0.00 0.000 0.188 78.8 48 57.4 78.6 8.87 .0726 649 4 100.0 30
5/01/26 12:00a 73.5 73.9 73.5 88 69.7 1.0 SW 0.50 4.0 WSW 73.5 75.6 75.6 29.953 0.00 0.00 0.000 0.177 78.5 48 57.2 78.2 8.88 .0727 648 4 100.0 30
5/01/26 12:30a 73.2 73.5 73.1 89 69.8 1.0 SW 0.50 3.0 SSW 73.2 75.3 75.3 29.950 0.00 0.00 0.000 0.171 78.5 47 56.6 78.1 8.68 .0727 650 4 100.0 30
5/01/26 1:00a 72.8 73.2 72.8 90 69.7 1.0 WSW 0.50 3.0 SW 72.8 74.9 74.9 29.958 0.00 0.00 0.000 0.163 78.9 48 57.5 78.7 8.87 .0726 651 4 100.0 30
5/01/26 1:30a 72.3 72.9 72.3 91 69.5 0.0 W 0.00 2.0 WSW 72.3 74.5 74.5 29.948 0.00 0.00 0.000 0.152 78.5 48 57.2 78.2 8.88 .0726 648 4 100.0 30
5/01/26 2:00a 71.6 72.3 71.6 92 69.2 0.0 W 0.00 2.0 W 71.6 73.9 73.9 29.935 0.00 0.00 0.000 0.137 79.0 48 57.6 78.8 8.87 .0725 648 4 100.0 30
5/01/26 2:30a 70.9 71.6 70.9 92 68.5 0.0 W 0.00 1.0 W 70.9 73.2 73.2 29.926 0.00 0.00 0.000 0.123 79.2 48 57.8 79.0 8.87 .0725 648 4 100.0 30
5/01/26 3:00a 70.6 70.9 70.6 93 68.5 0.0 SW 0.00 2.0 WSW 70.6 73.0 73.0 29.923 0.00 0.00 0.000 0.117 78.8 48 57.4 78.6 8.87 .0725 650 4 100.0 30
5/01/26 3:30a 70.8 70.8 70.4 94 69.0 1.0 SW 0.50 3.0 WSW 70.8 73.3 73.3 29.920 0.00 0.00 0.000 0.121 79.0 48 57.6 78.8 8.87 .0725 650 4 100.0 30
5/01/26 4:00a 70.5 70.8 70.5 94 68.7 1.0 WSW 0.50 3.0 W 70.5 73.0 73.0 29.915 0.00 0.00 0.000 0.115 79.1 48 57.7 78.9 8.87 .0725 647 4 100.0 30
5/01/26 4:30a 70.0 70.6 70.0 94 68.2 0.0 WSW 0.00 1.0 SW 70.0 72.5 72.5 29.915 0.00 0.00 0.000 0.104 79.2 48 57.8 79.0 8.87 .0724 647 4 100.0 30
5/01/26 5:00a 69.8 70.1 69.6 94 68.0 0.0 WSW 0.00 1.0 WSW 69.8 72.3 72.3 29.921 0.00 0.00 0.000 0.100 79.2 48 57.8 79.0 8.87 .0725 648 4 100.0 30
5/01/26 5:30a 69.9 69.9 69.7 95 68.4 0.0 WSW 0.00 2.0 WSW 69.9 72.5 72.5 29.925 0.00 0.00 0.000 0.102 79.2 48 57.8 79.0 8.87 .0725 653 4 100.0 30
5/01/26 6:00a 69.8 69.9 69.8 95 68.3 1.0 WSW 0.50 2.0 WSW 69.8 72.4 72.4 29.928 0.00 0.00 0.000 0.100 79.2 48 57.8 79.0 8.87 .0725 648 4 100.0 30
5/01/26 6:30a 69.4 69.8 69.4 94 67.6 0.0 WSW 0.00 2.0 WSW 69.4 71.9 71.9 29.923 0.00 0.00 0.000 0.092 79.2 48 57.8 79.0 8.87 .0725 649 4 100.0 30
5/01/26 7:00a 69.3 69.5 69.2 95 67.8 0.0 NW 0.00 1.0 NW 69.3 71.8 71.8 29.931 0.00 0.00 0.000 0.090 79.1 48 57.7 78.9 8.87 .0725 649 4 100.0 30
5/01/26 7:30a 69.0 69.3 68.9 95 67.5 0.0 WNW 0.00 1.0 WNW 69.0 71.5 71.5 29.941 0.00 0.00 0.000 0.083 79.0 48 57.6 78.8 8.87 .0725 652 4 100.0 30
5/01/26 8:00a 71.5 71.5 69.0 96 70.3 0.0 WNW 0.00 2.0 WNW 71.5 74.1 74.1 29.951 0.00 0.00 0.000 0.135 79.0 48 57.6 78.8 8.87 .0726 649 4 100.0 30
5/01/26 8:30a 73.7 73.7 71.5 96 72.5 1.0 WSW 0.50 3.0 WSW 73.7 76.4 76.4 29.952 0.00 0.00 0.000 0.181 79.1 48 57.7 78.9 8.87 .0726 647 4 100.0 30
5/01/26 9:00a 76.2 76.2 73.7 91 73.4 1.0 WSW 0.50 9.0 NW 76.2 79.5 79.5 29.956 0.00 0.00 0.000 0.233 79.3 48 57.9 79.1 8.86 .0725 648 4 100.0 30
5/01/26 9:30a 79.7 79.7 76.2 76 71.5 2.0 NW 1.00 9.0 NW 79.7 83.7 83.7 29.959 0.00 0.00 0.000 0.306 78.6 48 57.3 78.3 8.88 .0727 650 4 100.0 30
5/01/26 10:00a 82.4 82.5 79.7 71 72.0 2.0 NW 1.00 9.0 NW 82.4 87.8 87.8 29.966 0.00 0.00 0.000 0.363 78.3 47 56.4 77.9 8.68 .0728 649 4 100.0 30
5/01/26 10:30a 83.6 83.6 82.3 66 71.0 1.0 W 0.50 7.0 W 83.6 88.7 88.7 29.963 0.00 0.00 0.000 0.387 78.1 47 56.2 77.7 8.69 .0728 649 4 100.0 30
5/01/26 11:00a 85.0 85.0 83.6 63 71.0 1.0 W 0.50 9.0 SW 85.0 90.4 90.4 29.967 0.00 0.00 0.000 0.417 78.2 48 56.9 77.9 8.89 .0727 650 4 100.0 30
5/01/26 11:30a 85.2 85.6 85.0 64 71.6 3.0 W 1.50 9.0 NNW 85.2 91.2 91.2 29.969 0.00 0.00 0.000 0.421 78.5 48 57.2 78.2 8.88 .0727 647 4 100.0 30
5/01/26 12:00p 86.1 86.1 84.7 63 72.0 4.0 NW 2.00 11.0 NW 86.1 92.6 92.6 29.964 0.00 0.00 0.000 0.440 78.3 46 55.8 77.8 8.48 .0728 649 4 100.0 30
5/01/26 12:30p 87.1 87.1 85.6 61 72.0 4.0 WSW 2.00 12.0 WSW 87.1 93.9 93.9 29.961 0.00 0.00 0.000 0.460 78.0 47 56.1 77.6 8.69 .0728 651 4 100.0 30
5/01/26 1:00p 87.8 88.2 87.1 59 71.7 4.0 WSW 2.00 12.0 WSW 87.8 94.5 94.5 29.957 0.00 0.00 0.000 0.475 78.3 48 57.0 78.0 8.88 .0727 648 4 100.0 30
5/01/26 1:30p 87.5 87.9 86.8 59 71.4 5.0 WNW 2.50 12.0 NW 87.5 93.9 93.9 29.953 0.00 0.00 0.000 0.469 78.8 47 56.9 78.4 8.67 .0726 649 4 100.0 30
5/01/26 2:00p 87.5 87.9 87.3 60 71.9 4.0 W 2.00 11.0 NW 87.5 94.3 94.3 29.943 0.00 0.00 0.000 0.469 78.3 45 55.2 77.6 8.38 .0727 648 4 100.0 30
5/01/26 2:30p 88.4 88.5 87.4 57 71.2 5.0 NW 2.50 14.0 NW 88.4 94.8 94.8 29.943 0.00 0.00 0.000 0.488 78.3 47 56.4 77.9 8.68 .0727 648 4 100.0 30
5/01/26 3:00p 88.3 88.4 87.5 53 69.0 6.0 WNW 3.00 12.0 NW 88.3 93.0 93.0 29.931 0.00 0.00 0.000 0.485 78.6 46 56.1 78.1 8.48 .0726 651 4 100.0 30
5/01/26 3:30p 88.1 88.4 88.0 57 70.9 5.0 NW 2.50 13.0 NW 88.1 94.2 94.2 29.920 0.00 0.00 0.000 0.481 78.9 45 55.8 78.3 8.37 .0726 651 4 100.0 30
5/01/26 4:00p 88.0 88.4 87.9 58 71.4 5.0 WSW 2.50 13.0 WNW 88.0 94.5 94.5 29.898 0.00 0.00 0.000 0.479 78.3 44 54.6 77.5 8.18 .0727 650 4 100.0 30
5/01/26 4:30p 87.1 88.0 87.1 57 70.0 4.0 WSW 2.00 13.0 SW 87.1 92.3 92.3 29.887 0.00 0.00 0.000 0.460 78.1 45 55.0 77.4 8.39 .0726 647 4 100.0 30
5/01/26 5:00p 84.8 87.1 84.8 61 69.9 5.0 SW 2.50 13.0 SW 84.8 89.3 89.3 29.873 0.00 0.00 0.000 0.413 78.5 45 55.4 77.9 8.38 .0725 650 4 100.0 30
5/01/26 5:30p 85.3 85.5 84.7 59 69.3 6.0 SW 3.00 13.0 WSW 85.3 89.6 89.6 29.874 0.00 0.00 0.000 0.423 78.9 43 54.5 78.1 8.05 .0725 650 4 100.0 30
5/01/26 6:00p 84.7 85.4 84.6 61 69.8 6.0 SW 3.00 13.0 SW 84.7 89.1 89.1 29.877 0.00 0.00 0.000 0.410 78.7 42 53.7 77.7 7.88 .0726 651 4 100.0 30
5/01/26 6:30p 83.8 84.8 83.8 62 69.4 4.0 SW 2.00 11.0 W 83.8 87.8 87.8 29.878 0.00 0.00 0.000 0.392 78.3 43 54.0 77.4 8.05 .0726 647 4 100.0 30
5/01/26 7:00p 82.8 83.8 82.8 63 68.9 3.0 WSW 1.50 10.0 W 82.8 86.3 86.3 29.879 0.00 0.00 0.000 0.371 78.5 43 54.1 77.6 8.05 .0726 650 4 100.0 30
5/01/26 7:30p 80.5 82.8 80.5 67 68.5 3.0 WSW 1.50 8.0 SSW 80.5 83.4 83.4 29.891 0.00 0.00 0.000 0.323 79.0 43 54.6 78.2 8.05 .0725 647 4 100.0 30
5/01/26 8:00p 78.3 80.4 78.3 72 68.5 2.0 WSW 1.00 8.0 W 78.3 80.7 80.7 29.894 0.00 0.00 0.000 0.277 78.8 42 53.8 77.8 7.87 .0726 652 4 100.0 30
5/01/26 8:30p 76.6 78.4 76.6 75 68.1 1.0 W 0.50 5.0 WSW 76.6 78.7 78.7 29.903 0.00 0.00 0.000 0.242 78.4 45 55.3 77.7 8.38 .0726 648 4 100.0 30
5/01/26 9:00p 75.2 76.5 75.2 79 68.2 1.0 WNW 0.50 3.0 WSW 75.2 77.3 77.3 29.911 0.00 0.00 0.000 0.212 78.4 44 54.7 77.6 8.18 .0727 648 4 100.0 30
5/01/26 9:30p 73.8 75.2 73.8 83 68.3 0.0 WNW 0.00 2.0 WNW 73.8 75.8 75.8 29.922 0.00 0.00 0.000 0.183 78.5 45 55.4 77.9 8.38 .0727 650 4 100.0 30
5/01/26 10:00p 72.8 73.8 72.8 86 68.4 0.0 SW 0.00 2.0 WSW 72.8 74.7 74.7 29.930 0.00 0.00 0.000 0.163 78.6 44 54.9 77.8 8.18 .0727 648 4 100.0 30
5/01/26 10:30p 72.2 72.8 72.1 87 68.1 0.0 SW 0.00 2.0 WSW 72.2 74.1 74.1 29.940 0.00 0.00 0.000 0.150 78.3 45 55.2 77.6 8.38 .0727 651 4 100.0 30
5/01/26 11:00p 71.2 72.1 71.2 88 67.5 0.0 SW 0.00 1.0 WSW 71.2 73.2 73.2 29.935 0.00 0.00 0.000 0.129 78.4 45 55.3 77.7 8.38 .0727 647 4 100.0 30
5/01/26 11:30p 70.3 71.3 70.3 90 67.2 0.0 S 0.00 1.0 SW 70.3 72.4 72.4 29.929 0.00 0.00 0.000 0.110 78.6 47 56.7 78.2 8.68 .0726 646 4 100.0 30
5/02/26 12:00a 70.0 70.4 69.9 92 67.6 0.0 S 0.00 1.0 S 70.0 72.3 72.3 29.925 0.00 0.00 0.000 0.104 78.5 48 57.2 78.2 8.88 .0726 646 4 100.0 30
5/02/26 12:30a 69.9 70.1 69.8 93 67.8 0.0 SSW 0.00 1.0 SSW 69.9 72.3 72.3 29.934 0.00 0.00 0.000 0.102 78.2 48 56.9 77.9 8.89 .0727 650 4 100.0 30
5/02/26 1:00a 69.3 70.0 69.3 93 67.2 0.0 --- 0.00 0.0 --- 69.3 71.7 71.7 29.924 0.00 0.00 0.000 0.090 78.5 46 56.0 78.0 8.48 .0726 652 4 100.0 30
5/02/26 1:30a 69.0 69.4 68.9 93 66.9 0.0 --- 0.00 0.0 --- 69.0 71.3 71.3 29.912 0.00 0.00 0.000 0.083 78.4 48 57.1 78.1 8.88 .0726 648 4 100.0 30
5/02/26 2:00a 68.5 69.0 68.5 93 66.4 0.0 --- 0.00 0.0 --- 68.5 70.7 70.7 29.916 0.00 0.00 0.000 0.073 78.7 48 57.4 78.4 8.88 .0725 650 4 100.0 30
5/02/26 2:30a 68.3 68.6 68.3 94 66.5 0.0 --- 0.00 0.0 --- 68.3 70.5 70.5 29.910 0.00 0.00 0.000 0.069 78.3 48 57.0 78.0 8.88 .0726 650 4 100.0 30
5/02/26 3:00a 68.2 68.4 68.1 94 66.4 0.0 SSE 0.00 1.0 SSW 68.2 70.3 70.3 29.904 0.00 0.00 0.000 0.067 78.5 48 57.2 78.2 8.88 .0725 650 4 100.0 30
5/02/26 3:30a 67.8 68.3 67.8 94 66.0 0.0 SSE 0.00 1.0 SSE 67.8 69.8 69.8 29.902 0.00 0.00 0.000 0.058 78.7 48 57.4 78.4 8.88 .0725 647 4 100.0 30
5/02/26 4:00a 67.6 67.8 67.5 95 66.1 0.0 SSE 0.00 1.0 SSE 67.6 69.6 69.6 29.895 0.00 0.00 0.000 0.054 78.7 48 57.4 78.4 8.88 .0725 648 4 100.0 30
5/02/26 4:30a 67.6 67.8 67.5 95 66.1 0.0 SSE 0.00 1.0 SSE 67.6 69.6 69.6 29.897 0.00 0.00 0.000 0.054 78.7 48 57.4 78.4 8.88 .0725 648 4 100.0 30
5/02/26 5:00a 68.0 68.0 67.5 95 66.5 0.0 SE 0.00 3.0 ESE 68.0 70.1 70.1 29.889 0.00 0.00 0.000 0.063 78.6 47 56.7 78.2 8.68 .0725 648 4 100.0 30
5/02/26 5:30a 68.4 68.4 67.9 95 66.9 1.0 SE 0.50 5.0 SE 68.4 70.7 70.7 29.883 0.00 0.00 0.000 0.071 78.6 47 56.7 78.2 8.68 .0725 650 4 100.0 30
5/02/26 6:00a 68.6 68.6 68.4 95 67.1 2.0 SSE 1.00 5.0 SE 68.6 70.9 70.9 29.871 0.00 0.00 0.000 0.075 78.5 47 56.6 78.1 8.68 .0725 645 4 100.0 30
5/02/26 6:30a 68.8 68.9 68.6 95 67.3 3.0 SSE 1.50 8.0 SE 68.8 71.2 71.2 29.878 0.00 0.00 0.000 0.079 78.5 47 56.6 78.1 8.68 .0725 648 4 100.0 30
5/02/26 7:00a 68.5 68.8 68.5 95 67.0 2.0 SSE 1.00 6.0 SSE 68.5 70.8 70.8 29.879 0.00 0.00 0.000 0.073 78.4 48 57.1 78.1 8.88 .0725 651 4 100.0 30
5/02/26 7:30a 68.8 68.9 68.5 95 67.3 3.0 SE 1.50 7.0 SE 68.8 71.2 71.2 29.887 0.00 0.00 0.000 0.079 78.3 48 57.0 78.0 8.88 .0725 650 4 100.0 30
5/02/26 8:00a 69.8 69.9 68.8 94 68.0 3.0 SE 1.50 6.0 SSE 69.8 72.3 72.3 29.893 0.00 0.00 0.000 0.100 78.4 48 57.1 78.1 8.88 .0725 649 4 100.0 30
5/02/26 8:30a 72.3 72.3 69.8 91 69.5 4.0 S 2.00 9.0 SSE 72.3 74.5 74.5 29.892 0.00 0.00 0.000 0.152 78.5 48 57.2 78.2 8.88 .0725 648 4 100.0 30
5/02/26 9:00a 74.9 74.9 72.3 87 70.8 5.0 S 2.50 10.0 S 74.9 77.4 77.4 29.891 0.00 0.00 0.000 0.206 78.7 48 57.4 78.4 8.88 .0725 646 4 100.0 30
5/02/26 9:30a 78.2 78.2 75.0 84 73.0 5.0 S 2.50 13.0 SSW 78.2 82.2 82.2 29.899 0.00 0.00 0.000 0.275 78.3 48 57.0 78.0 8.88 .0726 651 4 100.0 30
5/02/26 10:00a 81.4 81.4 78.2 72 71.5 8.0 SSW 4.00 18.0 S 81.0 86.1 85.7 29.907 0.00 0.00 0.000 0.342 78.7 47 56.8 78.3 8.68 .0725 651 4 100.0 30
5/02/26 10:30a 84.2 84.2 81.4 68 72.5 11.0 SSW 5.50 22.0 SW 82.9 90.5 89.2 29.907 0.00 0.00 0.000 0.400 78.5 48 57.2 78.2 8.88 .0725 648 4 100.0 30
5/02/26 11:00a 84.7 85.2 84.2 70 73.8 10.0 SW 5.00 21.0 WSW 83.7 92.3 91.3 29.914 0.00 0.00 0.000 0.410 78.4 49 57.7 78.3 8.98 .0726 646 4 100.0 30
5/02/26 11:30a 84.7 85.3 84.6 71 74.3 11.0 SSW 5.50 23.0 SW 83.5 92.7 91.5 29.941 0.00 0.00 0.000 0.410 78.4 49 57.7 78.3 8.98 .0726 650 4 100.0 30
5/02/26 12:00p 85.2 85.3 84.6 70 74.3 10.0 SW 5.00 22.0 SW 84.3 93.5 92.6 29.927 0.00 0.00 0.000 0.421 78.4 47 56.5 78.0 8.68 .0726 649 4 100.0 30
5/02/26 12:30p 83.9 85.2 83.9 73 74.3 12.0 SW 6.00 24.0 W 82.3 91.6 90.0 29.925 0.00 0.00 0.000 0.394 78.0 49 57.3 77.9 8.99 .0727 648 4 100.0 30
5/02/26 1:00p 84.1 84.2 83.7 74 74.9 9.0 SW 4.50 19.0 SSW 83.4 92.4 91.7 29.931 0.00 0.00 0.000 0.398 78.1 49 57.4 78.0 8.99 .0727 648 4 100.0 30
5/02/26 1:30p 83.6 84.1 83.6 74 74.4 9.0 SW 4.50 19.0 SW 82.9 91.3 90.6 29.920 0.00 0.00 0.000 0.387 78.5 49 57.7 78.4 8.98 .0726 648 4 100.0 30
5/02/26 2:00p 83.9 83.9 83.6 74 74.7 8.0 SW 4.00 21.0 SW 83.6 91.9 91.6 29.916 0.00 0.00 0.000 0.394 78.4 47 56.5 78.0 8.68 .0726 645 4 100.0 30
5/02/26 2:30p 82.5 84.1 82.5 77 74.6 7.0 SW 3.50 15.0 SSW 82.5 89.7 89.7 29.913 0.00 0.00 0.000 0.365 78.2 49 57.5 78.1 8.99 .0726 650 4 100.0 30
5/02/26 3:00p 81.3 82.5 81.3 79 74.2 5.0 SW 2.50 13.0 WSW 81.3 87.6 87.6 29.909 0.00 0.00 0.000 0.340 78.4 49 57.7 78.3 8.98 .0725 654 4 100.0 30
5/02/26 3:30p 80.8 81.3 80.7 80 74.0 5.0 SW 2.50 12.0 SW 80.8 86.7 86.7 29.898 0.00 0.00 0.000 0.329 78.6 49 57.8 78.5 8.98 .0725 645 4 100.0 30
5/02/26 4:00p 78.7 80.9 78.7 75 70.1 5.0 W 2.50 26.0 NW 78.7 81.8 81.8 29.910 0.00 0.00 0.000 0.285 78.2 48 56.9 77.9 8.89 .0726 651 4 100.0 30
5/02/26 4:30p 72.0 78.6 71.9 91 69.2 3.0 S 1.50 16.0 NW 72.0 74.2 74.2 29.904 0.49 7.02 0.000 0.146 78.0 49 57.3 77.9 8.99 .0726 648 4 100.0 30
5/02/26 5:00p 71.5 72.0 71.5 91 68.7 2.0 W 1.00 7.0 W 71.5 73.7 73.7 29.912 0.00 0.00 0.000 0.135 77.9 49 57.2 77.8 8.99 .0726 650 4 100.0 30
5/02/26 5:30p 71.6 71.6 71.3 93 69.5 1.0 NNW 0.50 4.0 WNW 71.6 74.0 74.0 29.888 0.03 0.14 0.000 0.137 77.9 49 57.2 77.8 8.99 .0726 652 4 100.0 30
5/02/26 6:00p 71.8 71.8 71.6 93 69.7 3.0 S 1.50 7.0 SE 71.8 74.2 74.2 29.920 0.02 0.09 0.000 0.142 77.9 49 57.2 77.8 8.99 .0727 650 4 100.0 30
5/02/26 6:30p 71.8 71.9 71.7 93 69.7 3.0 S 1.50 9.0 SSE 71.8 74.2 74.2 29.900 0.03 0.07 0.000 0.142 78.5 48 57.2 78.2 8.88 .0725 648 4 100.0 30
5/02/26 7:00p 71.8 71.9 71.8 94 70.0 2.0 SSW 1.00 6.0 SSE 71.8 74.2 74.2 29.912 0.01 0.05 0.000 0.142 78.5 50 58.3 78.5 9.18 .0725 649 4 100.0 30
5/02/26 7:30p 71.4 71.9 71.4 93 69.3 3.0 SSW 1.50 7.0 SSW 71.4 73.8 73.8 29.889 0.03 0.06 0.000 0.133 78.2 50 58.0 78.2 9.19 .0725 649 4 100.0 30
5/02/26 8:00p 71.2 71.5 71.1 94 69.4 3.0 SE 1.50 8.0 SE 71.2 73.7 73.7 29.920 0.01 0.08 0.000 0.129 78.0 49 57.3 77.9 8.99 .0726 651 4 100.0 30
5/02/26 8:30p 70.9 71.4 70.9 92 68.5 3.0 SSW 1.50 8.0 SSW 70.9 73.2 73.2 29.930 0.00 0.00 0.000 0.123 78.4 50 58.2 78.4 9.18 .0726 646 4 100.0 30
5/02/26 9:00p 70.4 70.9 70.4 93 68.3 1.0 SW 0.50 4.0 SW 70.4 72.8 72.8 29.932 0.00 0.00 0.000 0.113 78.1 50 57.9 78.1 9.19 .0726 647 4 100.0 30
5/02/26 9:30p 70.5 70.6 70.4 94 68.7 0.0 SSW 0.00 2.0 SSW 70.5 73.0 73.0 29.952 0.00 0.00 0.000 0.115 78.5 50 58.3 78.5 9.18 .0726 646 4 100.0 30
5/02/26 10:00p 70.6 70.7 70.5 94 68.8 2.0 SSW 1.00 7.0 SSW 70.6 73.1 73.1 29.961 0.00 0.00 0.000 0.117 78.0 50 57.9 78.0 9.19 .0727 651 4 100.0 30
5/02/26 10:30p 70.7 70.8 70.6 92 68.3 2.0 S 1.00 6.0 S 70.7 73.0 73.0 29.962 0.00 0.00 0.000 0.119 78.4 50 58.2 78.4 9.18 .0727 651 4 100.0 30
5/02/26 11:00p 70.6 70.7 70.5 93 68.5 1.0 S 0.50 4.0 S 70.6 73.0 73.0 29.958 0.00 0.00 0.000 0.117 78.7 50 58.5 78.7 9.18 .0726 650 4 100.0 30
5/02/26 11:30p 71.1 71.2 70.6 93 69.0 2.0 S 1.00 5.0 S 71.1 73.5 73.5 29.982 0.00 0.00 0.000 0.127 78.7 49 57.9 78.6 8.98 .0727 647 4 100.0 30
5/03/26 12:00a 71.1 71.2 71.1 92 68.7 2.0 SSW 1.00 6.0 SSW 71.1 73.4 73.4 29.988 0.00 0.00 0.000 0.127 78.5 50 58.3 78.5 9.18 .0727 651 4 100.0 30
5/03/26 12:30a 71.0 71.2 71.0 93 68.9 3.0 NW 1.50 9.0 NNW 71.0 73.4 73.4 30.000 0.00 0.00 0.000 0.125 78.7 51 59.0 78.8 9.35 .0727 649 4 100.0 30
5/03/26 1:00a 70.8 71.1 70.8 94 69.0 4.0 NW 2.00 9.0 NW 70.8 73.3 73.3 30.003 0.00 0.00 0.000 0.121 78.8 51 59.1 78.9 9.35 .0727 650 4 100.0 30
5/03/26 1:30a 70.4 70.8 70.4 93 68.3 5.0 N 2.50 12.0 N 70.4 72.8 72.8 29.999 0.00 0.00 0.000 0.113 78.9 51 59.2 79.0 9.35 .0726 649 4 100.0 30
5/03/26 2:00a 69.7 70.5 69.7 94 67.9 5.0 N 2.50 12.0 N 69.7 72.2 72.2 29.997 0.08 0.68 0.000 0.098 78.4 50 58.2 78.4 9.18 .0727 649 4 100.0 30
5/03/26 2:30a 69.6 69.7 69.5 94 67.8 5.0 N 2.50 16.0 N 69.6 72.1 72.1 29.994 0.07 0.49 0.000 0.096 78.5 51 58.9 78.6 9.35 .0727 653 4 100.0 30
5/03/26 3:00a 68.8 69.6 68.8 94 67.0 7.0 N 3.50 18.0 NNW 68.8 71.1 71.1 29.990 0.00 0.00 0.000 0.079 78.6 51 59.0 78.7 9.35 .0727 648 4 100.0 30
5/03/26 3:30a 67.7 68.8 67.7 93 65.6 5.0 NNE 2.50 11.0 N 67.7 69.6 69.6 29.988 0.00 0.00 0.000 0.056 78.6 51 59.0 78.7 9.35 .0727 647 4 100.0 30
5/03/26 4:00a 67.2 67.8 67.2 93 65.1 5.0 NNE 2.50 14.0 N 67.2 69.0 69.0 29.989 0.00 0.00 0.000 0.046 78.6 51 59.0 78.7 9.35 .0727 644 4 100.0 30
5/03/26 4:30a 66.3 67.2 66.3 93 64.2 7.0 N 3.50 16.0 N 66.3 67.9 67.9 30.009 0.00 0.00 0.000 0.027 78.5 51 58.9 78.6 9.35 .0727 651 4 100.0 30
5/03/26 5:00a 66.0 66.4 66.0 94 64.2 6.0 N 3.00 13.0 N 66.0 67.5 67.5 30.013 0.01 0.00 0.000 0.021 78.5 51 58.9 78.6 9.35 .0727 651 4 100.0 30
5/03/26 5:30a 65.7 66.0 65.7 94 63.9 4.0 NNE 2.00 11.0 N 65.7 67.2 67.2 30.019 0.00 0.00 0.000 0.015 78.4 51 58.8 78.5 9.35 .0728 648 4 100.0 30
5/03/26 6:00a 65.0 65.8 65.0 93 62.9 4.0 NE 2.00 11.0 NNE 65.0 66.3 66.3 30.021 0.00 0.00 0.000 0.000 78.3 51 58.7 78.4 9.35 .0728 645 4 100.0 30
5/03/26 6:30a 64.7 65.1 64.6 94 62.9 5.0 NE 2.50 14.0 NE 64.7 66.0 66.0 30.026 0.00 0.00 0.006 0.000 78.2 51 58.6 78.3 9.35 .0728 650 4 100.0 30
5/03/26 7:00a 64.5 64.7 64.4 94 62.7 5.0 NE 2.50 11.0 NE 64.5 65.7 65.7 30.033 0.00 0.00 0.010 0.000 78.0 51 58.4 78.1 9.35 .0729 650 4 100.0 30
5/03/26 7:30a 64.2 64.5 64.2 93 62.1 5.0 NE 2.50 11.0 NNE 64.2 65.3 65.3 30.038 0.00 0.00 0.017 0.000 77.9 51 58.3 77.9 9.35 .0729 648 4 100.0 30
5/03/26 8:00a 64.2 64.3 64.1 93 62.1 5.0 NE 2.50 12.0 NE 64.2 65.3 65.3 30.058 0.00 0.00 0.017 0.000 77.8 51 58.2 77.8 9.35 .0730 646 4 100.0 30
5/03/26 8:30a 64.4 64.5 64.2 92 62.0 5.0 NE 2.50 12.0 ENE 64.4 65.5 65.5 30.066 0.00 0.00 0.012 0.000 77.6 51 58.0 77.6 9.35 .0730 651 4 100.0 30
5/03/26 9:00a 64.8 64.9 64.4 91 62.1 5.0 NE 2.50 13.0 NNE 64.8 65.9 65.9 30.080 0.00 0.00 0.004 0.000 77.6 51 58.0 77.6 9.35 .0731 650 4 100.0 30
5/03/26 9:30a 65.3 65.4 64.8 89 62.0 5.0 NE 2.50 13.0 ENE 65.3 66.4 66.4 30.089 0.00 0.00 0.000 0.006 77.5 51 57.9 77.5 9.35 .0731 648 4 100.0 30
5/03/26 10:00a 65.9 65.9 65.3 89 62.6 5.0 NE 2.50 15.0 NE 65.9 67.1 67.1 30.099 0.00 0.00 0.000 0.019 77.5 51 57.9 77.5 9.35 .0731 647 4 100.0 30
5/03/26 10:30a 67.3 67.4 65.8 86 63.0 5.0 NE 2.50 13.0 ENE 67.3 68.6 68.6 30.112 0.00 0.00 0.000 0.048 77.5 51 57.9 77.5 9.35 .0732 648 4 100.0 30
5/03/26 11:00a 69.2 69.2 67.4 83 63.8 7.0 NE 3.50 17.0 NNE 69.2 70.8 70.8 30.111 0.00 0.00 0.000 0.087 77.5 51 57.9 77.5 9.35 .0732 648 4 100.0 30
5/03/26 11:30a 70.9 70.9 69.2 79 64.1 7.0 NE 3.50 17.0 NE 70.9 72.3 72.3 30.115 0.00 0.00 0.000 0.123 77.8 51 58.2 77.8 9.35 .0731 644 4 100.0 30
5/03/26 12:00p 71.7 71.7 70.9 76 63.7 7.0 ENE 3.50 16.0 E 71.7 72.8 72.8 30.114 0.00 0.00 0.000 0.140 78.0 51 58.4 78.1 9.35 .0731 649 4 100.0 30
5/03/26 12:30p 73.5 73.5 71.7 75 65.1 7.0 ENE 3.50 17.0 ENE 73.5 74.9 74.9 30.113 0.00 0.00 0.000 0.177 78.3 51 58.7 78.4 9.35 .0730 650 4 100.0 30
5/03/26 1:00p 74.7 74.7 73.5 71 64.7 7.0 ENE 3.50 15.0 ENE 74.7 76.0 76.0 30.104 0.00 0.00 0.000 0.202 78.7 52 59.6 78.9 9.48 .0729 652 4 100.0 30
5/03/26 1:30p 75.6 75.6 74.7 68 64.3 7.0 ENE 3.50 17.0 E 75.6 76.8 76.8 30.092 0.00 0.00 0.000 0.221 78.4 50 58.2 78.4 9.18 .0730 646 4 100.0 30
5/03/26 2:00p 77.7 77.7 75.6 66 65.4 7.0 ENE 3.50 18.0 ENE 77.7 79.1 79.1 30.090 0.00 0.00 0.000 0.265 78.2 49 57.5 78.1 8.99 .0730 648 4 100.0 30
5/03/26 2:30p 79.4 79.4 77.8 65 66.6 7.0 E 3.50 15.0 E 79.4 81.3 81.3 30.079 0.00 0.00 0.000 0.300 78.1 49 57.4 78.0 8.99 .0730 647 4 100.0 30
5/03/26 3:00p 79.1 80.2 78.9 62 65.0 6.0 ENE 3.00 14.0 N 79.1 80.4 80.4 30.063 0.00 0.00 0.000 0.294 78.2 49 57.5 78.1 8.99 .0730 650 4 100.0 30
5/03/26 3:30p 79.6 79.7 78.9 63 65.9 7.0 ENE 3.50 17.0 E 79.6 81.2 81.2 30.050 0.00 0.00 0.000 0.304 78.3 49 57.6 78.2 8.98 .0729 649 4 100.0 30
5/03/26 4:00p 80.3 81.2 79.5 61 65.6 6.0 ENE 3.00 14.0 ENE 80.3 81.8 81.8 30.041 0.00 0.00 0.000 0.319 78.6 49 57.8 78.5 8.98 .0728 648 4 100.0 30
5/03/26 4:30p 80.4 81.3 80.3 58 64.3 5.0 ENE 2.50 14.0 E 80.4 81.6 81.6 30.033 0.00 0.00 0.000 0.321 78.8 46 56.3 78.3 8.47 .0729 648 4 100.0 30
5/03/26 5:00p 78.9 80.4 78.8 60 63.8 4.0 ENE 2.00 12.0 ENE 78.9 79.8 79.8 30.019 0.00 0.00 0.000 0.290 78.3 47 56.4 77.9 8.68 .0729 648 4 100.0 30
5/03/26 5:30p 80.1 80.1 78.8 59 64.5 4.0 ENE 2.00 11.0 ESE 80.1 81.2 81.2 30.020 0.00 0.00 0.000 0.315 78.6 48 57.3 78.3 8.88 .0728 647 4 100.0 30
5/03/26 6:00p 78.9 80.1 78.9 60 63.8 5.0 E 2.50 12.0 E 78.9 79.8 79.8 30.017 0.00 0.00 0.000 0.290 79.0 47 57.0 78.6 8.67 .0728 650 4 100.0 30
5/03/26 6:30p 78.5 78.9 78.4 63 64.9 3.0 ENE 1.50 9.0 ENE 78.5 79.7 79.7 30.017 0.00 0.00 0.000 0.281 78.5 45 55.4 77.9 8.38 .0729 650 4 100.0 30
5/03/26 7:00p 78.2 78.7 78.2 63 64.6 4.0 ENE 2.00 12.0 ENE 78.2 79.3 79.3 30.020 0.00 0.00 0.000 0.275 78.3 47 56.4 77.9 8.68 .0729 644 4 100.0 30
5/03/26 7:30p 77.0 78.2 77.0 64 63.9 4.0 E 2.00 11.0 ENE 77.0 78.0 78.0 30.018 0.00 0.00 0.000 0.250 78.5 48 57.2 78.2 8.88 .0728 650 4 100.0 30
5/03/26 8:00p 75.6 77.0 75.6 67 63.9 4.0 E 2.00 8.0 E 75.6 76.7 76.7 30.023 0.00 0.00 0.000 0.221 78.7 47 56.8 78.3 8.68 .0728 646 4 100.0 30
5/03/26 8:30p 74.3 75.6 74.3 70 63.9 3.0 E 1.50 9.0 ESE 74.3 75.5 75.5 30.034 0.00 0.00 0.000 0.194 78.5 46 56.0 78.0 8.48 .0729 652 4 100.0 30
5/03/26 9:00p 73.5 74.4 73.5 71 63.5 3.0 E 1.50 8.0 ESE 73.5 74.6 74.6 30.044 0.00 0.00 0.000 0.177 78.1 46 55.6 77.5 8.49 .0730 648 4 100.0 30
5/03/26 9:30p 72.7 73.5 72.7 73 63.5 3.0 E 1.50 9.0 NE 72.7 73.8 73.8 30.057 0.00 0.00 0.000 0.160 78.5 46 56.0 78.0 8.48 .0730 648 4 100.0 30
5/03/26 10:00p 71.9 72.7 71.9 74 63.2 4.0 E 2.00 11.0 E 71.9 72.9 72.9 30.058 0.00 0.00 0.000 0.144 78.6 48 57.3 78.3 8.88 .0729 648 4 100.0 30
5/03/26 10:30p 71.2 72.0 71.2 74 62.5 3.0 E 1.50 9.0 E 71.2 72.0 72.0 30.070 0.00 0.00 0.000 0.129 78.3 48 57.0 78.0 8.88 .0730 648 4 100.0 30
5/03/26 11:00p 70.6 71.2 70.5 76 62.7 2.0 E 1.00 8.0 E 70.6 71.6 71.6 30.076 0.00 0.00 0.000 0.117 78.1 48 56.8 77.8 8.89 .0730 652 4 100.0 30
5/03/26 11:30p 70.1 70.6 70.1 76 62.2 3.0 E 1.50 9.0 E 70.1 71.0 71.0 30.077 0.00 0.00 0.000 0.106 78.5 48 57.2 78.2 8.88 .0730 650 4 100.0 30
5/04/26 12:00a 69.3 70.1 69.3 78 62.1 2.0 ENE 1.00 9.0 E 69.3 70.5 70.5 30.082 0.00 0.00 0.000 0.090 78.8 47 56.9 78.4 8.67 .0729 648 4 100.0 30
5/04/26 12:30a 68.5 69.3 68.5 79 61.7 2.0 ENE 1.00 9.0 E 68.5 69.7 69.7 30.069 0.00 0.00 0.000 0.073 78.4 48 57.1 78.1 8.88 .0730 647 4 100.0 30
5/04/26 1:00a 68.0 68.5 67.9 81 61.9 2.0 ENE 1.00 6.0 ENE 68.0 69.2 69.2 30.059 0.00 0.00 0.000 0.063 78.6 48 57.3 78.3 8.88 .0729 649 4 100.0 30
5/04/26 1:30a 67.4 67.9 67.4 83 62.1 1.0 ENE 0.50 5.0 ENE 67.4 68.6 68.6 30.056 0.00 0.00 0.000 0.050 78.7 48 57.4 78.4 8.88 .0729 650 4 100.0 30
5/04/26 2:00a 66.6 67.5 66.6 83 61.3 1.0 NE 0.50 4.0 NE 66.6 67.6 67.6 30.045 0.00 0.00 0.000 0.033 78.6 48 57.3 78.3 8.88 .0729 648 4 100.0 30
5/04/26 2:30a 65.7 66.6 65.7 84 60.7 1.0 NE 0.50 5.0 NE 65.7 66.5 66.5 30.036 0.00 0.00 0.000 0.015 78.5 48 57.2 78.2 8.88 .0729 650 4 100.0 30
5/04/26 3:00a 65.8 65.9 65.7 86 61.5 2.0 N 1.00 6.0 N 65.8 66.7 66.7 30.053 0.00 0.00 0.000 0.017 78.5 48 57.2 78.2 8.88 .0729 646 4 100.0 30
5/04/26 3:30a 65.8 65.8 65.7 86 61.5 1.0 N 0.50 5.0 N 65.8 66.7 66.7 30.048 0.00 0.00 0.000 0.017 78.4 48 57.1 78.1 8.88 .0729 654 4 100.0 30
5/04/26 4:00a 66.6 66.6 65.8 82 60.9 3.0 NE 1.50 9.0 ENE 66.6 67.6 67.6 30.022 0.00 0.00 0.000 0.033 78.3 48 57.0 78.0 8.88 .0729 648 4 100.0 30
5/04/26 4:30a 66.0 66.6 66.0 82 60.3 2.0 NE 1.00 6.0 NE 66.0 66.8 66.8 30.026 0.00 0.00 0.000 0.021 78.1 48 56.8 77.8 8.89 .0729 649 4 100.0 30
5/04/26 5:00a 65.2 66.0 65.2 84 60.2 2.0 NE 1.00 6.0 NE 65.2 65.9 65.9 30.030 0.00 0.00 0.000 0.004 78.0 48 56.7 77.7 8.89 .0729 645 4 100.0 30
5/04/26 5:30a 64.6 65.2 64.5 84 59.7 2.0 NNE 1.00 5.0 NNE 64.6 65.2 65.2 30.022 0.00 0.00 0.008 0.000 77.8 48 56.5 77.5 8.89 .0730 649 4 100.0 30
5/04/26 6:00a 64.5 64.6 64.4 85 59.9 2.0 NNE 1.00 7.0 N 64.5 65.1 65.1 30.029 0.00 0.00 0.010 0.000 77.6 49 56.9 77.4 9.00 .0730 649 4 100.0 30
5/04/26 6:30a 64.4 64.5 64.4 84 59.5 3.0 NNE 1.50 9.0 NE 64.4 65.0 65.0 30.036 0.00 0.00 0.012 0.000 77.4 49 56.7 77.2 9.00 .0730 648 4 100.0 30
5/04/26 7:00a 64.0 64.5 64.0 85 59.4 2.0 NE 1.00 6.0 NNE 64.0 64.5 64.5 30.041 0.00 0.00 0.021 0.000 77.2 49 56.6 77.0 9.01 .0731 647 4 100.0 30
5/04/26 7:30a 64.1 64.2 63.9 85 59.5 3.0 NE 1.50 7.0 NE 64.1 64.6 64.6 30.052 0.00 0.00 0.019 0.000 77.0 49 56.4 76.8 9.01 .0731 652 4 100.0 30
5/04/26 8:00a 65.5 65.5 64.1 82 59.9 4.0 NE 2.00 10.0 NE 65.5 66.2 66.2 30.058 0.00 0.00 0.000 0.010 76.9 49 56.3 76.7 9.01 .0732 652 4 100.0 30
5/04/26 8:30a 68.8 68.8 65.6 77 61.3 4.0 ENE 2.00 11.0 ENE 68.8 69.9 69.9 30.057 0.00 0.00 0.000 0.079 76.9 49 56.3 76.7 9.01 .0732 648 4 100.0 30
5/04/26 9:00a 71.7 71.7 68.7 72 62.2 6.0 ENE 3.00 15.0 NE 71.7 72.4 72.4 30.062 0.00 0.00 0.000 0.140 77.0 49 56.4 76.8 9.01 .0732 649 4 100.0 30
5/04/26 9:30a 74.0 74.0 71.7 67 62.3 8.0 ENE 4.00 20.0 E 73.5 74.9 74.4 30.069 0.00 0.00 0.000 0.188 77.2 49 56.6 77.0 9.01 .0731 652 4 100.0 30
5/04/26 10:00a 75.6 75.6 74.0 65 63.0 7.0 ENE 3.50 17.0 E 75.6 76.5 76.5 30.074 0.00 0.00 0.000 0.221 77.4 49 56.7 77.2 9.00 .0731 651 4 100.0 30
5/04/26 10:30a 77.7 77.8 75.6 60 62.7 7.0 E 3.50 16.0 E 77.7 78.3 78.3 30.075 0.00 0.00 0.000 0.265 77.7 49 57.0 77.5 9.00 .0731 650 4 100.0 30
5/04/26 11:00a 78.8 78.8 77.7 57 62.3 8.0 E 4.00 18.0 E 78.4 79.4 79.0 30.076 0.00 0.00 0.000 0.288 78.0 49 57.3 77.9 8.99 .0730 648 4 100.0 30
5/04/26 11:30a 80.9 80.9 78.8 53 62.2 7.0 ENE 3.50 19.0 E 80.9 81.6 81.6 30.075 0.00 0.00 0.000 0.331 78.3 49 57.6 78.2 8.98 .0730 648 4 100.0 30
5/04/26 12:00p 81.4 81.5 80.7 46 58.6 8.0 E 4.00 16.0 E 81.0 81.1 80.7 30.075 0.00 0.00 0.000 0.342 78.4 49 57.7 78.3 8.98 .0730 648 4 100.0 30
5/04/26 12:30p 82.5 82.5 81.3 50 62.0 8.0 ENE 4.00 16.0 ENE 82.2 83.2 82.9 30.066 0.00 0.00 0.000 0.365 78.7 47 56.8 78.3 8.68 .0729 650 4 100.0 30
5/04/26 1:00p 83.1 83.3 82.5 45 59.6 7.0 ENE 3.50 18.0 ESE 83.1 82.9 82.9 30.056 0.00 0.00 0.000 0.377 78.8 47 56.9 78.4 8.67 .0729 648 4 100.0 30
5/04/26 1:30p 83.7 83.9 82.9 45 60.1 6.0 E 3.00 14.0 E 83.7 83.7 83.7 30.049 0.00 0.00 0.000 0.390 78.6 46 56.1 78.1 8.48 .0729 648 4 100.0 30
5/04/26 2:00p 85.4 85.4 83.6 48 63.5 5.0 ENE 2.50 14.0 E 85.4 86.7 86.7 30.039 0.00 0.00 0.000 0.425 78.4 47 56.5 78.0 8.68 .0729 649 4 100.0 30
5/04/26 2:30p 85.0 85.6 84.3 48 63.1 6.0 NE 3.00 16.0 E 85.0 86.1 86.1 30.022 0.00 0.00 0.000 0.417 78.6 47 56.7 78.2 8.68 .0728 650 4 100.0 30
5/04/26 3:00p 85.1 85.5 85.0 46 62.0 7.0 E 3.50 17.0 E 85.1 85.8 85.8 30.010 0.00 0.00 0.000 0.419 79.1 47 57.1 78.7 8.67 .0727 652 4 100.0 30
5/04/26 3:30p 85.6 85.9 84.4 45 61.8 5.0 E 2.50 12.0 ENE 85.6 86.2 86.2 29.998 0.00 0.00 0.000 0.429 79.0 45 55.8 78.4 8.37 .0728 650 4 100.0 30
5/04/26 4:00p 85.4 85.5 83.8 45 61.6 6.0 E 3.00 15.0 NE 85.4 85.9 85.9 29.985 0.00 0.00 0.000 0.425 78.8 47 56.9 78.4 8.67 .0727 650 4 100.0 30
5/04/26 4:30p 85.6 85.6 85.2 47 63.1 5.0 E 2.50 13.0 ENE 85.6 86.7 86.7 29.980 0.00 0.00 0.000 0.429 79.4 46 56.8 78.9 8.46 .0726 648 4 100.0 30
5/04/26 5:00p 83.3 85.8 83.3 49 62.1 5.0 E 2.50 14.0 E 83.3 84.0 84.0 29.975 0.00 0.00 0.000 0.381 79.2 44 55.4 78.5 8.17 .0727 649 4 100.0 30
5/04/26 5:30p 86.0 86.0 83.3 47 63.4 3.0 ENE 1.50 13.0 E 86.0 87.2 87.2 29.970 0.00 0.00 0.000 0.438 79.0 46 56.5 78.5 8.47 .0727 650 4 100.0 30
5/04/26 6:00p 82.9 86.2 82.8 50 62.4 5.0 E 2.50 14.0 ESE 82.9 83.7 83.7 29.975 0.00 0.00 0.000 0.373 79.4 45 56.2 78.8 8.36 .0726 653 4 100.0 30
5/04/26 6:30p 83.6 83.6 82.5 50 63.0 4.0 E 2.00 12.0 E 83.6 84.6 84.6 29.967 0.00 0.00 0.000 0.387 79.4 44 55.6 78.7 8.16 .0726 648 4 100.0 30
5/04/26 7:00p 81.6 83.6 81.6 54 63.3 6.0 E 3.00 13.0 E 81.6 82.6 82.6 29.971 0.00 0.00 0.000 0.346 78.8 45 55.7 78.2 8.37 .0727 647 4 100.0 30
5/04/26 7:30p 80.1 81.7 80.1 57 63.5 6.0 E 3.00 14.0 E 80.1 81.0 81.0 29.974 0.00 0.00 0.000 0.315 79.1 45 55.9 78.5 8.37 .0727 650 4 100.0 30
5/04/26 8:00p 78.3 80.1 78.3 60 63.3 7.0 E 3.50 16.0 E 78.3 79.1 79.1 29.985 0.00 0.00 0.000 0.277 79.3 45 56.1 78.7 8.36 .0727 647 4 100.0 30
5/04/26 8:30p 76.9 78.3 76.9 63 63.3 5.0 E 2.50 12.0 E 76.9 77.7 77.7 29.996 0.00 0.00 0.000 0.248 78.7 45 55.6 78.1 8.38 .0728 652 4 100.0 30
5/04/26 9:00p 75.8 76.9 75.7 66 63.6 6.0 E 3.00 16.0 E 75.8 76.8 76.8 30.001 0.00 0.00 0.000 0.225 78.4 45 55.3 77.7 8.38 .0729 650 4 100.0 30
5/04/26 9:30p 74.6 75.7 74.6 68 63.3 7.0 E 3.50 14.0 ESE 74.6 75.7 75.7 30.018 0.00 0.00 0.000 0.200 78.5 46 56.0 78.0 8.48 .0729 650 4 100.0 30
5/04/26 10:00p 73.7 74.6 73.7 69 62.9 6.0 E 3.00 15.0 E 73.7 74.7 74.7 30.029 0.00 0.00 0.000 0.181 78.5 46 56.0 78.0 8.48 .0729 646 4 100.0 30
5/04/26 10:30p 72.8 73.7 72.7 71 62.8 5.0 E 2.50 11.0 E 72.8 73.7 73.7 30.035 0.00 0.00 0.000 0.163 78.5 47 56.6 78.1 8.68 .0729 647 4 100.0 30
5/04/26 11:00p 72.2 72.7 72.2 72 62.7 5.0 E 2.50 11.0 E 72.2 73.1 73.1 30.044 0.00 0.00 0.000 0.150 78.4 46 55.9 77.9 8.48 .0729 650 4 100.0 30
5/04/26 11:30p 71.6 72.2 71.6 73 62.5 4.0 E 2.00 11.0 ESE 71.6 72.4 72.4 30.040 0.00 0.00 0.000 0.137 79.1 47 57.1 78.7 8.67 .0728 650 4 100.0 30
5/05/26 12:00a 70.7 71.6 70.7 76 62.8 4.0 E 2.00 10.0 E 70.7 71.7 71.7 30.036 0.00 0.00 0.000 0.119 78.7 47 56.8 78.3 8.68 .0729 648 4 100.0 30
5/05/26 12:30a 69.9 70.8 69.9 77 62.4 2.0 E 1.00 7.0 E 69.9 70.9 70.9 30.034 0.00 0.00 0.000 0.102 79.1 47 57.1 78.7 8.67 .0728 646 4 100.0 30
5/05/26 1:00a 69.1 69.9 69.0 79 62.3 1.0 ENE 0.50 7.0 E 69.1 70.4 70.4 30.030 0.00 0.00 0.000 0.085 78.7 47 56.8 78.3 8.68 .0728 648 4 100.0 30
5/05/26 1:30a 68.7 69.1 68.6 79 61.9 2.0 ENE 1.00 7.0 E 68.7 69.9 69.9 30.021 0.00 0.00 0.000 0.077 79.0 47 57.0 78.6 8.67 .0728 652 4 100.0 30
5/05/26 2:00a 68.8 68.8 68.6 80 62.4 3.0 E 1.50 9.0 E 68.8 70.1 70.1 30.020 0.00 0.00 0.000 0.079 79.1 47 57.1 78.7 8.67 .0727 650 4 100.0 30
5/05/26 2:30a 68.2 68.8 68.1 81 62.1 3.0 E 1.50 8.0 E 68.2 69.4 69.4 30.003 0.00 0.00 0.000 0.067 79.1 47 57.1 78.7 8.67 .0727 645 4 100.0 30
5/05/26 3:00a 67.5 68.2 67.5 83 62.2 2.0 E 1.00 7.0 ESE 67.5 68.7 68.7 29.995 0.00 0.00 0.000 0.052 79.1 47 57.1 78.7 8.67 .0727 646 4 100.0 30
5/05/26 3:30a 66.8 67.5 66.8 85 62.1 2.0 E 1.00 8.0 ENE 66.8 67.9 67.9 29.998 0.00 0.00 0.000 0.038 79.1 47 57.1 78.7 8.67 .0727 650 4 100.0 30
5/05/26 4:00a 66.3 66.8 66.3 86 62.0 2.0 E 1.00 6.0 E 66.3 67.4 67.4 29.985 0.00 0.00 0.000 0.027 79.0 47 57.0 78.6 8.67 .0727 653 4 100.0 30
5/05/26 4:30a 66.0 66.4 66.0 87 62.0 1.0 E 0.50 7.0 E 66.0 67.1 67.1 29.990 0.00 0.00 0.000 0.021 78.8 47 56.9 78.4 8.67 .0727 648 4 100.0 30
5/05/26 5:00a 65.7 66.1 65.7 88 62.0 1.0 E 0.50 6.0 ESE 65.7 66.8 66.8 29.985 0.00 0.00 0.000 0.015 78.7 47 56.8 78.3 8.68 .0727 649 4 100.0 30
5/05/26 5:30a 65.5 65.8 65.5 89 62.2 2.0 E 1.00 6.0 ENE 65.5 66.6 66.6 29.989 0.00 0.00 0.000 0.010 78.5 47 56.6 78.1 8.68 .0728 649 4 100.0 30
5/05/26 6:00a 65.2 65.6 65.2 89 61.9 2.0 E 1.00 4.0 ENE 65.2 66.3 66.3 29.994 0.00 0.00 0.000 0.004 78.3 47 56.4 77.9 8.68 .0728 650 4 100.0 30
5/05/26 6:30a 65.0 65.3 65.0 90 62.0 1.0 E 0.50 5.0 ENE 65.0 66.1 66.1 30.001 0.00 0.00 0.000 0.000 78.1 48 56.8 77.8 8.89 .0728 649 4 100.0 30
5/05/26 7:00a 65.0 65.1 64.9 90 62.0 2.0 E 1.00 6.0 ESE 65.0 66.1 66.1 30.008 0.00 0.00 0.000 0.000 77.9 48 56.6 77.6 8.89 .0729 646 4 100.0 30
5/05/26 7:30a 65.4 65.4 65.0 90 62.4 1.0 E 0.50 4.0 ENE 65.4 66.6 66.6 30.019 0.00 0.00 0.000 0.008 77.8 48 56.5 77.5 8.89 .0729 646 4 100.0 30
5/05/26 8:00a 67.3 67.3 65.4 87 63.3 3.0 E 1.50 8.0 E 67.3 68.7 68.7 30.032 0.00 0.00 0.000 0.048 77.7 48 56.4 77.4 8.90 .0730 651 4 100.0 30
5/05/26 8:30a 70.4 70.4 67.3 83 65.0 4.0 E 2.00 10.0 ENE 70.4 72.0 72.0 30.037 0.00 0.00 0.000 0.113 77.7 48 56.4 77.4 8.90 .0730 649 4 100.0 30
5/05/26 9:00a 73.3 73.3 70.4 78 66.0 6.0 E 3.00 14.0 E 73.3 74.9 74.9 30.029 0.00 0.00 0.000 0.173 77.9 48 56.6 77.6 8.89 .0730 647 4 100.0 30
5/05/26 9:30a 75.9 75.9 73.4 74 67.0 9.0 E 4.50 16.0 E 74.6 77.7 76.4 30.035 0.00 0.00 0.000 0.227 78.1 48 56.8 77.8 8.89 .0729 649 4 100.0 30
5/05/26 10:00a 78.7 78.7 75.9 66 66.4 6.0 E 3.00 14.0 ESE 78.7 80.4 80.4 30.037 0.00 0.00 0.000 0.285 78.3 48 57.0 78.0 8.88 .0729 649 4 100.0 30
5/05/26 10:30a 79.1 79.4 78.7 65 66.3 8.0 E 4.00 15.0 E 78.7 80.8 80.4 30.048 0.00 0.00 0.000 0.294 78.7 48 57.4 78.4 8.88 .0729 650 4 100.0 30
5/05/26 11:00a 80.0 80.5 79.1 63 66.3 6.0 E 3.00 14.0 ESE 80.0 81.8 81.8 30.054 0.00 0.00 0.000 0.313 78.5 48 57.2 78.2 8.88 .0729 648 4 100.0 30
5/05/26 11:30a 80.3 80.4 79.7 65 67.5 5.0 SE 2.50 12.0 SE 80.3 82.7 82.7 30.056 0.00 0.00 0.000 0.319 78.7 46 56.2 78.2 8.48 .0729 648 4 100.0 30
5/05/26 12:00p 82.8 82.8 80.3 61 68.0 5.0 E 2.50 13.0 ESE 82.8 85.8 85.8 30.051 0.00 0.00 0.000 0.371 78.9 47 57.0 78.5 8.67 .0729 647 4 100.0 30
5/05/26 12:30p 82.5 82.8 82.1 60 67.2 5.0 E 2.50 13.0 SSE 82.5 85.0 85.0 30.049 0.00 0.00 0.000 0.365 78.8 46 56.3 78.3 8.47 .0729 648 4 100.0 30
5/05/26 1:00p 84.6 84.6 82.5 56 67.2 4.0 SSE 2.00 12.0 ESE 84.6 87.5 87.5 30.047 0.00 0.00 0.000 0.408 78.5 46 56.0 78.0 8.48 .0729 648 4 100.0 30
5/05/26 1:30p 85.3 85.5 84.6 54 66.8 4.0 E 2.00 10.0 E 85.3 88.1 88.1 30.033 0.00 0.00 0.000 0.423 78.5 47 56.6 78.1 8.68 .0729 650 4 100.0 30
5/05/26 2:00p 86.5 86.5 84.8 50 65.7 4.0 ESE 2.00 11.0 SSE 86.5 88.8 88.8 30.024 0.00 0.00 0.000 0.448 78.8 48 57.4 78.6 8.87 .0728 650 4 100.0 30
5/05/26 2:30p 88.3 88.3 86.4 47 65.5 4.0 SSE 2.00 12.0 SSE 88.3 90.7 90.7 30.012 0.00 0.00 0.000 0.485 79.3 46 56.7 78.8 8.46 .0727 647 4 100.0 30
5/05/26 3:00p 88.3 88.6 87.9 45 64.3 3.0 SE 1.50 10.0 ENE 88.3 90.1 90.1 30.004 0.00 0.00 0.000 0.485 79.1 45 55.9 78.5 8.37 .0728 650 4 100.0 30
5/05/26 3:30p 88.8 88.8 88.2 41 62.1 2.0 SSE 1.00 11.0 E 88.8 89.5 89.5 29.995 0.00 0.00 0.000 0.496 79.0 47 57.0 78.6 8.67 .0727 648 4 100.0 30
5/05/26 4:00p 88.6 89.3 88.5 41 61.9 2.0 S 1.00 10.0 S 88.6 89.3 89.3 29.999 0.00 0.00 0.000 0.492 79.5 46 56.9 79.0 8.46 .0726 650 4 100.0 30
5/05/26 4:30p 89.8 90.5 88.5 48 67.5 3.0 WNW 1.50 13.0 W 89.8 93.6 93.6 29.990 0.00 0.00 0.000 0.517 79.5 43 55.0 78.6 8.05 .0727 650 4 100.0 30
5/05/26 5:00p 88.2 89.7 88.2 51 67.8 5.0 NW 2.50 13.0 NNW 88.2 92.0 92.0 29.985 0.00 0.00 0.000 0.483 79.2 44 55.4 78.5 8.17 .0727 646 4 100.0 30
5/05/26 5:30p 86.9 88.2 86.8 56 69.3 6.0 NW 3.00 15.0 NNW 86.9 91.5 91.5 29.992 0.00 0.00 0.000 0.456 79.4 45 56.2 78.8 8.36 .0727 646 4 100.0 30
5/05/26 6:00p 84.8 86.9 84.8 61 69.9 7.0 NW 3.50 15.0 NW 84.8 89.3 89.3 29.997 0.00 0.00 0.000 0.413 79.8 43 55.3 78.9 8.05 .0727 648 4 100.0 30
5/05/26 6:30p 83.2 84.8 83.2 64 69.8 5.0 WNW 2.50 12.0 NW 83.2 87.3 87.3 29.995 0.00 0.00 0.000 0.379 79.2 42 54.1 78.2 7.87 .0728 654 4 100.0 30
5/05/26 7:00p 81.8 83.2 81.8 67 69.8 7.0 NW 3.50 16.0 WNW 81.8 85.6 85.6 29.998 0.00 0.00 0.000 0.350 79.1 44 55.3 78.4 8.17 .0728 645 4 100.0 30
5/05/26 7:30p 79.8 81.8 79.8 69 68.7 4.0 NW 2.00 12.0 NW 79.8 82.6 82.6 29.999 0.00 0.00 0.000 0.308 79.6 43 55.1 78.7 8.05 .0727 647 4 100.0 30
5/05/26 8:00p 77.6 79.8 77.6 73 68.3 3.0 WNW 1.50 10.0 WNW 77.6 79.8 79.8 30.001 0.00 0.00 0.000 0.262 79.1 42 54.0 78.1 7.87 .0728 648 4 100.0 30
5/05/26 8:30p 76.1 77.6 76.1 77 68.4 3.0 NW 1.50 8.0 NW 76.1 78.2 78.2 30.010 0.00 0.00 0.000 0.231 78.8 46 56.3 78.3 8.47 .0728 648 4 100.0 30
5/05/26 9:00p 75.1 76.1 75.1 79 68.1 1.0 WNW 0.50 4.0 NW 75.1 77.1 77.1 30.015 0.00 0.00 0.000 0.210 78.9 45 55.8 78.3 8.37 .0728 651 4 100.0 30
5/05/26 9:30p 74.2 75.1 74.2 82 68.3 0.0 WNW 0.00 3.0 NW 74.2 76.2 76.2 30.029 0.00 0.00 0.000 0.192 79.0 44 55.2 78.3 8.17 .0729 651 4 100.0 30
5/05/26 10:00p 73.0 74.2 73.0 84 67.9 0.0 WNW 0.00 1.0 WNW 73.0 74.9 74.9 30.032 0.00 0.00 0.000 0.167 78.5 44 54.8 77.7 8.18 .0730 648 4 100.0 30
5/05/26 10:30p 72.0 73.0 72.0 87 67.9 0.0 NE 0.00 2.0 NE 72.0 73.9 73.9 30.047 0.00 0.00 0.000 0.146 78.3 46 55.8 77.8 8.48 .0730 648 4 100.0 30
5/05/26 11:00p 73.3 73.3 72.0 77 65.7 2.0 ENE 1.00 7.0 E 73.3 74.8 74.8 30.053 0.00 0.00 0.000 0.173 78.3 46 55.8 77.8 8.48 .0730 649 4 100.0 30
5/05/26 11:30p 75.5 75.6 73.3 70 65.0 5.0 E 2.50 10.0 ENE 75.5 76.9 76.9 30.063 0.00 0.00 0.000 0.219 78.8 45 55.7 78.2 8.37 .0730 648 4 100.0 30
5/06/26 12:00a 74.9 75.6 74.9 68 63.6 4.0 E 2.00 11.0 ESE 74.9 76.0 76.0 30.056 0.00 0.00 0.000 0.206 79.0 47 57.0 78.6 8.67 .0729 647 4 100.0 30
5/06/26 12:30a 73.9 74.8 73.8 69 63.1 4.0 E 2.00 9.0 E 73.9 74.9 74.9 30.059 0.00 0.00 0.000 0.185 78.8 47 56.9 78.4 8.67 .0729 648 4 100.0 30
5/06/26 1:00a 72.6 73.8 72.5 71 62.7 2.0 E 1.00 6.0 E 72.6 73.5 73.5 30.062 0.00 0.00 0.000 0.158 78.5 47 56.6 78.1 8.68 .0730 646 4 100.0 30
5/06/26 1:30a 71.5 72.5 71.5 74 62.8 2.0 E 1.00 6.0 E 71.5 72.4 72.4 30.053 0.00 0.00 0.000 0.135 79.0 47 57.0 78.6 8.67 .0728 646 4 100.0 30
5/06/26 2:00a 70.6 71.5 70.6 76 62.7 1.0 E 0.50 6.0 E 70.6 71.6 71.6 30.049 0.00 0.00 0.000 0.117 78.6 47 56.7 78.2 8.68 .0729 653 4 100.0 30
5/06/26 2:30a 69.5 70.6 69.5 78 62.3 1.0 E 0.50 4.0 E 69.5 70.7 70.7 30.044 0.00 0.00 0.000 0.094 79.0 47 57.0 78.6 8.67 .0728 649 4 100.0 30
5/06/26 3:00a 68.7 69.5 68.7 81 62.6 1.0 E 0.50 4.0 E 68.7 70.1 70.1 30.034 0.00 0.00 0.000 0.077 79.1 47 57.1 78.7 8.67 .0728 650 4 100.0 30
5/06/26 3:30a 68.3 68.7 68.3 83 62.9 1.0 ESE 0.50 3.0 E 68.3 69.7 69.7 30.027 0.00 0.00 0.000 0.069 79.2 47 57.2 78.9 8.67 .0727 648 4 100.0 30
5/06/26 4:00a 68.3 68.4 68.3 84 63.3 2.0 ESE 1.00 7.0 ESE 68.3 69.8 69.8 30.031 0.00 0.00 0.000 0.069 79.1 47 57.1 78.7 8.67 .0728 651 4 100.0 30
5/06/26 4:30a 67.8 68.3 67.8 85 63.1 1.0 E 0.50 3.0 E 67.8 69.2 69.2 30.029 0.00 0.00 0.000 0.058 79.2 47 57.2 78.9 8.67 .0727 650 4 100.0 30
5/06/26 5:00a 67.5 67.9 67.4 87 63.5 1.0 ESE 0.50 4.0 ESE 67.5 69.0 69.0 30.026 0.00 0.00 0.000 0.052 79.1 47 57.1 78.7 8.67 .0728 646 4 100.0 30
5/06/26 5:30a 67.5 67.5 67.5 87 63.5 1.0 ESE 0.50 6.0 E 67.5 69.0 69.0 30.022 0.00 0.00 0.000 0.052 79.0 47 57.0 78.6 8.67 .0728 648 4 100.0 30
5/06/26 6:00a 67.2 67.5 67.1 89 63.8 1.0 ESE 0.50 4.0 ESE 67.2 68.8 68.8 30.030 0.00 0.00 0.000 0.046 78.9 47 57.0 78.5 8.67 .0728 644 4 100.0 30
5/06/26 6:30a 67.0 67.2 67.0 89 63.6 1.0 ESE 0.50 6.0 E 67.0 68.5 68.5 30.035 0.00 0.00 0.000 0.042 78.7 47 56.8 78.3 8.68 .0729 650 4 100.0 30
5/06/26 7:00a 66.9 67.0 66.9 90 63.9 1.0 ESE 0.50 5.0 SSE 66.9 68.5 68.5 30.043 0.00 0.00 0.000 0.040 78.7 47 56.8 78.3 8.68 .0729 650 4 100.0 30
5/06/26 7:30a 67.4 67.4 66.9 91 64.7 1.0 ESE 0.50 4.0 ESE 67.4 69.1 69.1 30.052 0.00 0.00 0.000 0.050 78.5 47 56.6 78.1 8.68 .0729 649 4 100.0 30
5/06/26 8:00a 68.8 68.8 67.3 90 65.7 3.0 SE 1.50 7.0 ESE 68.8 70.8 70.8 30.058 0.00 0.00 0.000 0.079 78.4 47 56.5 78.0 8.68 .0730 647 4 100.0 30
5/06/26 8:30a 71.2 71.2 68.8 88 67.5 3.0 SE 1.50 8.0 SSE 71.2 73.2 73.2 30.062 0.00 0.00 0.000 0.129 78.5 48 57.2 78.2 8.88 .0729 650 4 100.0 30
5/06/26 9:00a 75.0 75.0 71.3 84 69.8 4.0 SE 2.00 10.0 SSE 75.0 77.4 77.4 30.068 0.00 0.00 0.000 0.208 78.6 48 57.3 78.3 8.88 .0729 649 4 100.0 30
5/06/26 9:30a 77.9 77.9 75.1 79 70.9 6.0 SSE 3.00 16.0 SE 77.9 81.0 81.0 30.076 0.00 0.00 0.000 0.269 78.8 48 57.4 78.6 8.87 .0729 649 4 100.0 30
5/06/26 10:00a 80.5 80.5 77.9 74 71.4 5.0 SE 2.50 11.0 SE 80.5 84.8 84.8 30.077 0.00 0.00 0.000 0.323 78.3 47 56.4 77.9 8.68 .0730 648 4 100.0 30